SCP
0 0 0 0 0 0 0 0 0 0 0 0 0 0 1 1 0 0 1 1 1 2 2 2 2 2 2 1 1 1 1 1 1 1 1 1 1 1 1 1 1 1 1 0 0 0 0 0 0
0 0 0 0 0 0 0 0 0 0 0 0 0 0 1 1 1 1 1 1 1 2 2 2 2 2 2 1 1 1 1 1 1 1 1 1 1 1 1 1 1 0 0 0 0 0 0 0 0
0 0 0 0 0 0 0 0 0 0 0 0 0 1 1 1 1 1 1 1 2 2 2 2 2 2 2 2 1 1 1 1 1 1 1 1 1 1 0 0 0 0 0 0 0 0 0 0 0
0 0 0 0 0 0 0 0 0 0 0 0 1 1 1 1 1 1 2 2 2 2 2 2 2 2 2 2 2 1 1 1 1 1 1 1 1 0 0 0 0 0 0 0 0 0 0 0 0
0 0 0 0 0 0 0 0 0 0 0 0 1 1 1 1 2 2 2 2 2 2 2 2 2 2 2 2 2 1 1 1 1 1 1 1 1 0 0 0 0 0 0 0 0 0 0 0 0
0 0 0 0 0 0 0 0 0 0 0 1 1 2 2 2 2 2 2 2 2 2 2 2 2 2 2 2 1 1 1 1 1 1 1 1 0 0 0 0 0 0 0 0 0 0 0 0 0
0 0 0 0 0 0 0 0 0 0 0 1 2 2 2 3 3 3 2 2 2 3 2 2 2 2 2 2 1 1 1 1 1 1 1 1 0 0 0 0 0 0 0 0 0 0 0 0 0
0 0 0 0 0 0 0 0 0 0 0 1 3 3 3 4 4 4 3 3 3 3 2 3 2 2 2 2 1 1 1 1 1 1 1 1 0 0 0 0 0 0 0 0 0 0 0 0 0
0 0 0 0 0 0 0 0 0 0 1 2 3 4 4 4 5 5 4 3 3 3 2 3 3 2 2 2 1 1 1 1 1 1 1 1 1 0 0 0 0 0 0 0 0 0 0 0 0
0 0 0 0 0 0 0 0 0 0 1 2 3 5 5 6 7 6 4 4 3 3 2 3 3 3 2 2 2 1 1 1 1 1 1 1 1 0 0 0 0 0 0 0 0 0 0 0 0
0 0 0 0 0 0 0 0 0 0 1 2 4 6 7 8 9 8 5 4 4 3 3 3 3 3 2 2 2 1 1 1 2 1 1 1 1 0 0 0 0 0 0 0 0 0 0 0 0
0 0 0 0 0 0 0 0 0 0 0 1 4 6 8 9 10 9 7 5 5 4 3 3 4 3 3 2 2 2 2 1 1 1 1 1 0 0 0 0 0 0 0 0 0 0 0 0 0
0 0 0 0 0 0 0 0 0 0 1 2 4 6 8 9 10 9 7 6 6 5 4 3 3 3 2 2 2 2 1 1 1 1 1 1 0 0 0 0 0 0 0 0 0 0 0 0 0
0 0 0 0 0 0 0 0 0 1 1 2 3 5 6 7 7 7 6 6 6 5 4 3 3 3 2 1 1 1 1 1 1 1 1 1 0 0 0 0 0 0 0 0 0 0 0 0 0
0 0 0 0 0 0 0 0 1 1 1 2 3 4 4 5 5 5 5 5 5 4 3 2 2 2 2 1 1 1 1 1 1 1 1 1 1 0 0 1 1 1 1 1 1 0 0 0 0
0 0 0 0 0 0 0 1 1 2 2 3 5 5 4 4 4 4 5 5 4 4 3 3 2 2 2 1 1 1 1 1 1 1 1 1 1 1 1 1 1 1 1 1 1 1 1 0 0
0 0 0 0 0 0 0 1 2 2 3 4 6 6 5 4 4 5 5 5 5 5 4 4 4 3 3 2 2 2 2 1 1 1 1 1 1 1 1 1 1 1 1 1 1 1 1 0 0
0 0 0 0 0 0 1 1 2 3 3 4 5 5 5 5 6 7 7 8 7 6 6 6 5 4 4 4 4 3 2 2 1 1 1 1 1 1 1 1 1 1 1 1 1 1 1 0 0
0 0 0 0 0 1 1 2 2 3 3 4 4 5 6 7 8 9 10 11 9 8 8 8 7 6 6 6 5 3 2 2 1 1 1 1 1 1 1 1 1 1 1 1 1 1 1 1 1
0 0 0 0 1 1 1 2 3 3 3 4 5 6 8 9 9 10 11 12 11 9 10 9 8 7 7 6 5 3 3 2 2 1 1 1 1 1 1 1 1 1 1 1 1 1 1 1 1
0 0 0 0 0 1 1 2 2 3 3 3 4 7 9 9 8 9 10 10 9 9 9 9 8 7 7 6 4 4 3 3 2 1 1 1 1 1 1 1 1 1 1 1 1 1 1 1 1
0 0 0 0 0 0 1 1 2 2 2 2 3 4 6 6 5 6 7 6 5 5 6 8 8 7 6 5 4 3 3 3 2 1 0 0 0 0 0 0 0 0 0 0 0 0 0 0 0
0 0 0 0 0 0 0 0 1 2 2 2 2 2 2 2 3 3 4 3 2 2 4 6 6 5 4 4 3 3 2 2 1 0 0 0 0 0 0 0 0 0 0 0 0 0 0 0 0
0 0 0 0 0 0 0 0 1 1 2 2 1 1 2 1 1 1 1 1 1 1 2 3 3 2 2 2 2 2 1 1 0 0 0 0 0 0 0 0 0 0 0 0 0 0 0 0 0
0 0 0 0 0 0 0 0 1 1 1 1 1 1 1 1 1 0 0 0 0 0 0 0 0 0 0 1 1 1 1 0 0 0 0 0 0 0 0 0 0 0 0 0 0 0 0 0 0
0 0 0 0 0 0 0 0 1 1 1 1 1 0 0 0 0 0 0 0 0 0 0 0 0 0 0 0 0 0 0 0 0 0 0 0 0 0 0 0 0 0 0 0 0 0 0 0 0
0 0 0 0 0 0 0 0 1 1 1 1 0 0 0 0 0 0 0 0 0 0 0 0 0 0 0 0 0 0 0 0 0 0 0 0 0 0 0 0 0 0 0 0 0 0 0 0 0
0 0 0 0 0 0 0 0 1 1 1 1 0 0 0 0 0 0 0 0 0 0 0 0 0 0 0 0 0 0 0 0 0 0 0 0 0 0 0 0 0 0 0 0 0 0 0 0 0
0 0 0 0 0 0 0 0 1 1 1 0 0 0 0 0 0 0 0 0 0 0 0 0 0 0 0 0 0 0 0 0 0 0 0 0 0 0 0 0 0 0 0 0 0 0 0 0 0
0 0 0 0 0 0 0 0 1 1 1 0 0 0 0 0 0 0 0 0 0 0 0 0 0 0 0 0 0 0 0 0 0 0 0 0 0 0 0 0 0 0 0 0 0 0 0 0 0
Wind_Speed
10 7 1 3 5 3 3 4 3 4 4 4 3 1 2 4 6 5 4 14 18 17 15 17 19 19 19 19 19 19 18 18 17 17 17 16 16 15 15 15 14 14 13 13 13 12 12 12 12
5 4 3 4 4 1 5 4 4 6 6 5 3 2 1 6 5 3 6 15 20 19 15 16 20 20 20 20 20 19 19 18 17 16 16 16 15 14 14 14 14 13 12 12 12 11 11 11 11
6 1 2 3 3 6 5 4 5 4 5 5 3 0 2 5 4 5 9 18 17 16 14 16 22 20 20 20 20 19 19 18 17 17 16 15 15 14 13 13 13 12 12 11 11 10 9 9 9
3 4 4 2 7 7 6 6 4 4 3 5 6 2 3 7 4 7 16 18 18 15 14 17 21 21 20 20 20 20 19 18 17 17 16 15 14 13 13 13 12 12 11 10 10 9 8 7 7
3 3 1 3 7 7 6 6 5 5 4 5 6 3 4 7 4 15 17 18 17 14 12 16 20 20 20 20 20 19 19 18 17 16 16 15 14 13 12 12 11 11 10 9 8 7 6 5 5
4 4 2 5 7 6 5 4 4 3 2 3 6 2 4 3 8 14 15 14 15 16 13 14 20 21 20 20 19 19 18 17 16 16 15 15 13 12 12 11 11 10 9 9 8 6 5 3 3
4 3 5 5 5 8 7 3 4 5 4 3 7 5 2 4 5 10 13 14 13 15 14 12 13 16 19 19 19 18 18 17 16 16 15 15 14 13 13 11 10 10 9 8 7 6 4 3 2
5 2 3 3 4 8 5 2 3 4 4 5 8 8 4 6 4 7 11 12 12 12 13 12 11 10 10 12 18 19 18 17 16 16 16 16 15 14 13 11 10 10 10 9 8 6 5 4 3
3 2 5 5 5 7 4 3 3 3 2 3 6 8 8 6 5 8 10 11 11 11 10 11 11 10 9 9 14 15 17 16 16 14 16 13 7 7 8 10 12 11 10 9 8 7 6 5 5
5 4 9 8 7 7 6 5 4 2 2 1 1 7 12 11 10 12 14 15 14 15 12 10 11 11 10 10 8 6 7 8 7 6 8 6 5 5 7 9 13 12 11 10 9 9 7 5 3
5 8 9 10 12 9 7 6 4 5 5 7 8 10 11 11 10 12 14 15 15 15 14 12 11 11 10 7 7 4 4 5 5 7 7 5 4 4 4 3 5 6 8 5 5 5 3 3 3
5 9 10 11 12 9 8 5 4 6 9 9 12 14 12 13 13 15 16 16 15 14 13 13 12 11 9 8 7 6 5 5 5 6 7 5 4 4 4 3 4 3 3 3 3 2 3 4 4
5 8 9 12 13 12 8 7 6 8 7 6 11 13 14 13 12 11 13 13 15 15 14 14 12 11 9 8 7 7 6 6 6 6 6 6 5 5 5 4 4 4 3 4 4 3 3 4 3
7 7 8 8 9 8 8 8 4 9 5 6 10 11 14 14 12 10 12 12 13 14 14 13 13 11 10 8 7 7 7 6 6 5 7 7 5 4 4 4 4 4 4 4 4 4 3 3 2
4 6 9 7 5 5 2 6 6 9 5 7 8 9 10 12 11 12 14 15 15 15 14 13 13 12 11 10 8 7 6 6 5 5 6 6 4 4 4 4 4 4 3 3 2 2 1 1 1
7 5 6 10 5 6 1 8 11 7 4 6 7 8 8 8 9 8 11 13 13 13 13 13 12 11 11 9 7 5 5 6 5 4 4 5 4 4 4 4 3 3 2 2 2 1 1 1 1
5 4 8 12 7 5 3 7 9 4 3 3 3 5 6 6 5 6 7 9 10 10 11 11 10 12 10 8 6 5 5 4 3 3 2 3 3 4 4 3 2 3 2 2 2 2 2 1 1
6 6 8 11 9 5 6 9 8 3 4 3 3 5 6 7 5 5 6 6 7 7 7 7 7 10 9 7 6 5 5 4 3 3 3 3 3 4 4 3 3 3 3 2 2 2 2 2 1
8 10 12 15 11 5 7 6 4 4 7 8 7 8 8 7 7 7 8 8 8 7 6 4 4 7 7 5 6 5 4 4 5 5 6 5 5 4 4 4 4 4 3 2 2 2 3 2 1
10 11 12 11 8 3 2 5 9 12 11 11 11 11 10 10 10 11 10 10 9 8 6 4 3 3 5 4 4 5 6 6 5 5 7 7 6 6 5 6 5 4 3 4 4 3 2 2 2
8 7 7 6 8 5 5 7 9 11 13 14 14 13 12 12 12 12 12 11 9 9 8 6 6 4 4 5 6 7 6 5 5 6 6 8 9 9 8 8 6 5 5 4 4 4 2 1 2
7 7 5 4 3 5 3 3 3 7 11 12 12 12 12 11 12 12 13 12 11 10 10 9 9 7 6 6 7 8 7 6 6 6 7 9 10 10 10 8 8 7 6 6 5 6 4 3 2
7 7 5 4 3 3 2 5 2 4 8 9 10 12 11 11 12 13 12 12 11 10 10 10 11 9 8 9 8 9 9 9 7 7 9 9 9 10 10 9 8 8 7 7 7 7 7 5 4
5 4 6 3 3 2 3 4 3 2 7 9 9 10 11 11 11 13 12 12 11 11 11 11 11 10 10 11 11 11 11 11 10 9 9 8 7 7 9 10 8 8 7 7 7 7 9 7 7
3 4 4 5 4 4 2 5 2 4 9 10 10 10 11 11 11 13 13 12 11 12 12 12 12 12 12 12 12 11 11 11 11 9 9 8 7 7 8 8 8 7 7 7 7 8 9 9 9
2 6 6 3 2 4 5 6 5 8 11 12 10 11 11 11 12 13 12 11 11 12 12 12 12 12 12 13 13 12 11 9 9 10 9 8 7 7 7 8 9 9 8 8 7 8 8 8 8
1 2 6 6 1 0 2 5 5 7 11 11 11 11 10 10 11 12 12 11 11 13 13 12 12 13 13 13 13 13 12 12 12 11 9 8 7 7 8 9 9 8 8 8 7 7 7 6 6
4 2 4 4 3 1 0 3 5 10 11 11 11 11 10 10 11 11 11 11 11 12 12 12 12 13 12 12 11 11 12 12 11 10 10 9 8 7 8 8 8 8 8 7 7 6 6 6 5
3 3 3 3 3 4 1 1 2 10 11 12 12 10 10 11 10 10 10 10 11 11 11 11 12 12 11 11 11 11 11 10 10 9 9 8 7 7 7 7 7 7 7 6 6 5 5 6 5
3 2 4 3 1 2 3 1 4 10 11 12 13 11 10 11 11 11 10 10 10 11 11 11 10 11 10 10 10 10 10 9 9 8 7 7 7 6 6 7 7 7 7 6 6 6 6 5 5
Wind_Direction
316 308 307 81 56 48 254 242 177 183 177 162 142 150 223 238 219 221 162 152 144 148 155 155 150 144 139 135 131 128 124 121 117 113 110 108 108 108 108 108 107 107 106 105 102 101 99 98 96
309 314 35 69 97 275 271 235 190 201 177 139 101 77 316 265 246 155 136 153 147 148 152 155 152 147 142 139 136 133 131 127 123 120 118 116 115 114 113 112 111 110 109 107 104 101 98 95 92
306 279 79 88 163 193 231 232 209 210 159 119 101 60 249 240 215 162 155 147 143 146 151 156 153 149 146 143 141 139 136 134 130 127 125 123 121 119 118 117 116 115 112 110 108 105 99 94 89
4 26 49 119 234 231 227 242 218 193 151 141 132 143 277 249 222 155 143 144 142 147 151 156 155 152 149 147 145 143 141 140 137 134 132 129 127 125 124 123 122 120 119 117 115 111 104 95 88
57 79 39 257 249 257 260 245 215 197 170 136 118 147 283 294 148 137 144 146 146 146 151 156 155 153 152 150 149 147 146 144 142 140 137 134 132 130 130 130 130 129 128 126 124 121 113 103 92
44 81 164 243 262 272 271 243 222 206 205 114 102 70 307 286 141 144 146 148 148 148 150 155 157 156 155 154 152 150 149 148 146 144 141 139 138 137 137 138 139 139 139 138 139 140 135 126 109
132 134 211 232 262 274 268 240 210 198 191 142 130 116 284 257 169 146 145 143 146 147 149 153 158 159 159 156 154 152 152 151 150 147 146 145 145 146 147 148 151 152 154 156 160 164 168 177 190
154 126 254 248 257 269 266 256 243 200 192 155 140 143 188 236 201 139 142 137 142 148 153 154 155 154 155 156 158 156 155 155 153 152 152 153 154 155 157 159 165 167 170 174 178 184 193 213 238
122 106 246 247 249 264 278 293 290 293 230 180 159 154 168 194 195 147 143 138 145 153 156 155 154 153 152 154 162 159 159 158 156 158 159 156 156 157 164 175 178 181 185 189 193 199 209 226 248
134 183 235 229 234 255 265 250 234 227 252 253 145 136 136 158 178 166 163 158 159 162 164 160 156 155 155 162 154 155 158 158 157 159 161 157 161 171 179 190 189 191 195 201 206 212 220 233 249
186 210 239 249 250 250 252 250 211 173 219 213 182 159 151 164 180 179 173 168 165 164 166 164 161 159 162 154 151 154 151 156 160 164 165 163 167 182 189 185 197 198 202 207 217 220 221 227 236
227 249 241 250 255 254 240 227 225 207 219 202 177 163 166 174 188 184 176 170 162 163 166 162 164 165 165 152 158 158 159 168 174 179 177 171 176 189 190 189 189 190 199 205 213 215 223 231 237
259 258 259 253 254 248 240 227 222 232 237 185 166 160 172 182 195 189 176 170 165 167 167 163 163 167 165 156 165 168 171 178 181 182 187 182 183 190 189 189 187 195 204 208 209 211 223 231 238
254 270 281 273 265 253 238 245 227 245 218 184 173 173 179 185 191 184 173 170 170 172 169 167 166 166 163 168 174 171 175 176 180 184 188 188 186 182 181 184 186 194 203 207 203 201 212 220 216
299 318 314 292 272 260 259 283 251 252 207 191 185 185 183 190 186 185 179 173 174 175 170 168 169 167 167 173 179 171 174 169 177 185 188 186 183 179 171 172 179 192 191 188 172 177 177 179 156
354 348 309 293 290 283 195 266 273 268 201 194 182 182 179 186 178 179 181 174 172 171 166 168 169 165 170 170 174 167 166 164 173 176 179 179 176 163 151 151 169 169 147 140 141 135 107 63 55
350 306 287 294 284 275 242 257 280 279 161 171 171 163 161 153 141 144 162 165 165 161 159 169 162 161 165 159 157 146 141 147 149 142 151 158 145 135 132 130 132 123 111 102 116 92 102 86 58
260 272 281 279 283 269 240 244 273 323 113 122 87 88 99 104 105 127 138 134 132 130 135 151 153 150 153 146 130 115 105 105 94 91 90 87 82 95 101 96 86 85 82 72 78 90 72 75 62
246 265 272 277 283 281 240 236 273 37 68 73 73 85 89 90 79 80 85 88 89 88 91 102 132 145 149 150 138 122 115 100 85 76 68 72 74 81 84 80 70 69 76 74 74 87 69 41 25
249 259 272 285 304 323 105 78 61 61 69 76 78 76 78 74 66 66 68 76 74 75 73 79 60 149 155 148 133 118 114 99 89 77 67 60 65 66 73 73 69 60 65 51 43 61 85 51 35
264 245 251 278 318 336 90 61 71 69 74 72 69 70 68 70 67 62 58 58 59 60 56 52 37 36 93 117 115 110 101 96 85 72 64 52 56 61 61 64 66 59 65 64 48 48 79 97 39
273 260 257 278 319 300 76 113 83 91 77 71 70 69 66 63 64 63 60 54 50 50 53 52 47 40 54 83 104 115 114 107 95 94 85 67 57 59 61 60 62 59 55 55 49 49 50 70 61
255 268 275 262 251 298 355 115 172 123 98 86 78 76 70 65 66 64 60 59 51 50 56 51 51 41 52 67 80 90 94 99 99 93 85 74 62 60 64 61 58 60 57 54 52 52 54 56 62
272 326 338 18 74 295 263 136 186 182 133 114 95 86 78 70 67 66 60 57 52 50 55 56 57 46 57 70 74 89 103 107 103 92 85 74 66 59 59 66 63 60 59 55 55 58 58 56 59
20 70 18 357 12 266 308 97 68 75 109 114 106 91 80 71 66 62 59 56 53 53 55 57 62 55 54 66 72 79 92 97 97 93 86 83 74 66 57 62 63 60 58 57 58 62 59 55 58
280 140 157 192 236 295 16 80 80 84 95 97 95 89 80 74 71 68 63 60 57 57 55 60 64 63 58 64 68 70 77 83 83 82 84 82 79 74 69 68 66 62 60 60 57 60 59 58 59
265 216 176 147 192 48 75 114 117 114 111 109 102 91 83 79 78 76 72 68 64 64 61 62 68 69 67 70 73 72 75 81 85 84 82 81 79 79 71 69 66 62 59 56 57 59 55 57 57
166 170 74 100 144 221 277 153 173 162 144 127 114 107 100 91 85 81 77 74 71 71 70 69 71 73 72 73 77 81 78 80 83 84 83 81 77 73 70 66 64 59 54 53 56 55 51 53 45
26 59 89 108 145 152 188 280 312 160 150 134 122 115 110 103 96 88 83 80 79 77 76 75 74 76 76 77 79 81 79 79 80 80 79 78 75 72 70 67 66 60 52 46 48 48 52 54 46
120 134 127 129 247 140 138 3 34 123 126 127 122 117 111 107 102 96 92 88 84 82 81 80 80 80 80 81 82 82 80 80 81 80 78 77 76 71 71 68 64 61 55 46 47 45 44 49 47